Location: Kawakawa
(35.3830°S, 174.0670°E)
Time: 03:26:07
(UTC+12:00)

GPS 2-04 Rocket1 - Pass Details

Date: 15 August 2020
Orbit: 417 x 548 km, 35.6° (Epoch: 19 September)

Event Time Altitude Azimuth Distance (km) Brightness Sun altitude
Rises 18:21:46 0° 303° (WNW) 2,627 7.8 -6.7°
Reaches altitude 10° 18:24:07 10° 311° (NW) 1,722 6.5 -7.2°
Maximum altitude 18:27:50 40° 20° (NNE) 741 3.4 -7.9°
Enters shadow 18:31:15 11° 90° (E) 1,598 4.5 -8.6°
